{"data":{"norad_id":67891,"intl_designator":"2026-035N","name":"STARLINK-36816","alt_names":[],"object_type":"PAYLOAD","status":"ACTIVE","operator":null,"country":"US","launch_date":"2026-02-21","launch_site_code":"AFWTR","launch_vehicle":null,"mission":null,"orbit_class":"UNKNOWN","rcs_meters":null,"size_class":null,"mass_kg":null,"dimensions":null,"purposes":["comms"],"wikipedia_slug":null,"has_3d_model":false,"image_url":null,"decayed_at":null,"tle_current":{"epoch":"2026-09-19T05:37:02.344224Z","epoch_age_seconds":172693,"freshness":"FRESH","line1":"1 67891U 26035N   26262.23405491  .00021881  00000+0  67778-3 0  9990","line2":"2 67891  97.2846 193.1065 0001464 116.0821 244.0572 15.33461450 33583","mean_motion":15.3346145,"eccentricity":0.0001464,"inclination_deg":97.2846,"raan_deg":193.1065,"arg_perigee_deg":116.0821,"mean_anomaly_deg":244.0572,"bstar":0.00067778,"rev_number":3358,"period_min":93.905197290744,"perigee_km":464.49232367696,"apogee_km":466.49613890148,"semimajor_km":6843.6312312892,"source":"CELESTRAK","updated_at":"2026-09-20T09:00:43.697849Z"}}}